This is the latest recevied weather packets stored in our database for station/object LZ1NAG-10. If no packets are shown the sender has not sent any weather packets the latest 10 day(s).
| Time | Temp. | Humidity | Pressure | Rain* | Wind** | Luminosity | Snow |
|---|---|---|---|---|---|---|---|
| 1778015899 | 11.67° C | 53% | 1019.5 hPa | - | - | - | - |
| 1778014999 | 12.22° C | 53% | 1019.6 hPa | - | - | - | - |
| 1778014099 | 11.67° C | 54% | 1019.7 hPa | - | - | - | - |
| 1778013199 | 11.67° C | 54% | 1019.5 hPa | - | - | - | - |
| 1778012298 | 11.67° C | 54% | 1019.5 hPa | - | - | - | - |
| 1778011398 | 11.67° C | 54% | 1019.4 hPa | - | - | - | - |
| 1778010498 | 12.22° C | 53% | 1019.2 hPa | - | - | - | - |
| 1778009598 | 13.33° C | 54% | 1019.3 hPa | - | - | - | - |
| 1778008698 | 13.33° C | 54% | 1019.2 hPa | - | - | - | - |
| 1778007797 | 13.89° C | 54% | 1019.1 hPa | - | - | - | - |
| 1778006897 | 14.44° C | 53% | 1019.1 hPa | - | - | - | - |
| 1778005997 | 14.44° C | 54% | 1019.1 hPa | - | - | - | - |
| 1778005097 | 13.89° C | 54% | 1019.1 hPa | - | - | - | - |
| 1778004197 | 15° C | 53% | 1018.7 hPa | - | - | - | - |
| 1778003297 | 16.11° C | 54% | 1018.7 hPa | - | - | - | - |
| 1778002396 | 16.67° C | 53% | 1018.5 hPa | - | - | - | - |
| 1778001496 | 17.22° C | 53% | 1018.5 hPa | - | - | - | - |
| 1778000596 | 17.78° C | 53% | 1018.5 hPa | - | - | - | - |
| 1777999696 | 18.33° C | 53% | 1018.4 hPa | - | - | - | - |
| 1777998796 | 19.44° C | 53% | 1018.4 hPa | - | - | - | - |
| 1777997896 | 20° C | 52% | 1018.4 hPa | - | - | - | - |
| 1777996996 | 20° C | 52% | 1018.3 hPa | - | - | - | - |
| 1777996095 | 20.56° C | 52% | 1018.6 hPa | - | - | - | - |
| 1777995195 | 20.56° C | 52% | 1018.5 hPa | - | - | - | - |
| 1777994295 | 21.11° C | 52% | 1018.8 hPa | - | - | - | - |
* Rain since midnight (hover to see other rain measurements)
** Current wind speed in m/s (hover to see current wind gust speed)